Location: Centerville
(32.8776°N, 96.6203°W)
Time: 09:51:23
(UTC+00:00)

Cosmos 2237 - Pass Details

Date: 28 October 2021
Orbit: 845 x 856 km, 70.8° (Epoch: 08 December)

Event Time Altitude Azimuth Distance (km) Brightness Sun altitude
Rises 01:16:02 0° 240° (WSW) 3,407 8.4 -20.8°
Reaches altitude 10° 01:19:14 10° 258° (WSW) 2,477 7.8 -21.5°
Maximum altitude 01:23:09 19° 302° (WNW) 1,938 6.7 -22.3°
Drops below altitude 10° 01:27:05 10° 346° (NNW) 2,489 6.8 -23.1°
Sets 01:30:20 0° 4° (N) 3,430 7.3 -23.8°
